When you browse on this site, cookies collect data to enhance your experience and personalize the content and advertising you see.
Visit our Privacy Policy to learn more. By continuing to use the site, you agree to this use of cookies and data.
  • In Hungary
  • List of Countries
  • For 7 days
  • Water Temperature
  • Weather Map
  • News
  • Weather Widgets
  • user-avatar
    Login

    Hourly Weather Dubivka

    Today, 25 August, Sunday

    Time Temperature Precipitation Wind Pressure Humidity
    00:00 +22°C° 0 mm 4 mps 752 mmHg 59%
    01:00 +21°C° 0 mm 4 mps 752 mmHg 61%
    02:00 +21°C° 0 mm 3 mps 752 mmHg 67%
    03:00 +20°C° 0 mm 3 mps 752 mmHg 69%
    04:00 +20°C° 0 mm 3 mps 752 mmHg 70%
    05:00 +19°C° 0 mm 4 mps 752 mmHg 72%
    06:00 +21°C° 0 mm 4 mps 753 mmHg 66%
    07:00 +22°C° 0 mm 4 mps 753 mmHg 60%
    08:00 +25°C° 0 mm 5 mps 753 mmHg 54%
    09:00 +27°C° 0 mm 5 mps 753 mmHg 47%
    10:00 +29°C° 0 mm 5 mps 753 mmHg 41%
    11:00 +30°C° 0 mm 5 mps 753 mmHg 34%
    12:00 +32°C° 0 mm 5 mps 753 mmHg 32%
    13:00 +33°C° 0 mm 5 mps 753 mmHg 30%
    14:00 +33°C° 0 mm 5 mps 752 mmHg 28%
    15:00 +33°C° 0 mm 5 mps 752 mmHg 28%
    16:00 +32°C° 0 mm 5 mps 752 mmHg 28%
    17:00 +30°C° 0 mm 5 mps 752 mmHg 28%
    18:00 +28°C° 0 mm 5 mps 752 mmHg 32%
    19:00 +26°C° 0 mm 5 mps 753 mmHg 36%
    20:00 +23°C° 0 mm 4 mps 753 mmHg 40%
    21:00 +22°C° 0 mm 4 mps 753 mmHg 44%
    22:00 +21°C° 0 mm 4 mps 753 mmHg 49%
    23:00 +20°C° 0 mm 4 mps 753 mmHg 54%

    Tomorrow, 26 August, Monday

    Time Temperature Precipitation Wind Pressure Humidity
    00:00 +19°C° 0 mm 4 mps 753 mmHg 58%
    01:00 +19°C° 0 mm 3 mps 754 mmHg 63%
    02:00 +18°C° 0 mm 3 mps 754 mmHg 67%
    03:00 +18°C° 0 mm 3 mps 754 mmHg 71%
    04:00 +17°C° 0 mm 3 mps 753 mmHg 75%
    05:00 +17°C° 0 mm 3 mps 753 mmHg 80%
    06:00 +19°C° 0 mm 4 mps 754 mmHg 72%
    07:00 +21°C° 0 mm 4 mps 754 mmHg 64%
    08:00 +23°C° 0 mm 4 mps 754 mmHg 56%
    09:00 +26°C° 0 mm 5 mps 754 mmHg 50%
    10:00 +27°C° 0 mm 5 mps 754 mmHg 44%
    11:00 +29°C° 0 mm 5 mps 754 mmHg 38%
    12:00 +30°C° 0 mm 5 mps 754 mmHg 36%
    13:00 +30°C° 0 mm 4 mps 753 mmHg 34%
    14:00 +32°C° 0 mm 4 mps 753 mmHg 31%
    15:00 +32°C° 0 mm 4 mps 753 mmHg 32%
    16:00 +30°C° 0 mm 4 mps 752 mmHg 33%
    17:00 +30°C° 0 mm 4 mps 752 mmHg 33%
    18:00 +28°C° 0 mm 3 mps 752 mmHg 38%
    19:00 +25°C° 0 mm 3 mps 752 mmHg 43%
    20:00 +22°C° 0 mm 3 mps 752 mmHg 47%
    21:00 +21°C° 0 mm 3 mps 753 mmHg 49%
    22:00 +20°C° 0 mm 3 mps 753 mmHg 50%
    23:00 +20°C° 0 mm 3 mps 753 mmHg 52%

    Day after tomorrow, 27 August, Tuesday

    Time Temperature Precipitation Wind Pressure Humidity
    00:00 +19°C° 0 mm 2 mps 753 mmHg 54%
    01:00 +18°C° 0 mm 2 mps 753 mmHg 55%
    02:00 +18°C° 0 mm 2 mps 753 mmHg 57%
    03:00 +17°C° 0 mm 2 mps 753 mmHg 58%
    04:00 +17°C° 0 mm 2 mps 752 mmHg 59%
    05:00 +17°C° 0 mm 2 mps 752 mmHg 60%
    06:00 +19°C° 0 mm 2 mps 752 mmHg 55%
    07:00 +21°C° 0 mm 2 mps 753 mmHg 49%
    08:00 +24°C° 0 mm 2 mps 753 mmHg 43%
    09:00 +25°C° 0 mm 3 mps 753 mmHg 40%
    10:00 +27°C° 0 mm 3 mps 752 mmHg 36%
    11:00 +28°C° 0 mm 4 mps 752 mmHg 32%
    12:00 +29°C° 0 mm 4 mps 752 mmHg 31%
    13:00 +29°C° 0 mm 4 mps 752 mmHg 29%
    14:00 +30°C° 0 mm 4 mps 751 mmHg 27%
    15:00 +29°C° 0 mm 5 mps 751 mmHg 29%
    16:00 +29°C° 0 mm 5 mps 751 mmHg 30%
    17:00 +28°C° 0 mm 5 mps 751 mmHg 31%
    18:00 +26°C° 0 mm 4 mps 751 mmHg 36%
    19:00 +23°C° 0 mm 4 mps 751 mmHg 42%
    20:00 +21°C° 0 mm 3 mps 751 mmHg 48%
    21:00 +20°C° 0 mm 3 mps 751 mmHg 52%
    22:00 +20°C° 0 mm 3 mps 751 mmHg 56%
    23:00 +19°C° 0 mm 2 mps 751 mmHg 60%

    28 August, Wednesday

    Time Temperature Precipitation Wind Pressure Humidity
    00:00 +19°C° 0 mm 2 mps 751 mmHg 64%
    01:00 +18°C° 0 mm 2 mps 751 mmHg 67%
    02:00 +18°C° 0 mm 2 mps 751 mmHg 71%
    03:00 +17°C° 0 mm 2 mps 751 mmHg 76%
    04:00 +17°C° 0 mm 3 mps 751 mmHg 81%
    05:00 +17°C° 0 mm 3 mps 751 mmHg 86%
    06:00 +19°C° 0 mm 3 mps 751 mmHg 78%
    07:00 +20°C° 0 mm 4 mps 751 mmHg 70%
    08:00 +22°C° 0 mm 4 mps 752 mmHg 63%
    09:00 +25°C° 0 mm 4 mps 751 mmHg 57%
    10:00 +26°C° 0 mm 5 mps 751 mmHg 51%
    11:00 +27°C° 0 mm 5 mps 751 mmHg 45%
    12:00 +27°C° 0 mm 5 mps 751 mmHg 42%
    13:00 +27°C° 0 mm 5 mps 751 mmHg 40%
    14:00 +28°C° 0 mm 5 mps 750 mmHg 37%
    15:00 +27°C° 0 mm 5 mps 750 mmHg 35%
    16:00 +27°C° 0 mm 5 mps 750 mmHg 33%
    17:00 +27°C° 0 mm 5 mps 750 mmHg 31%
    18:00 +25°C° 0 mm 5 mps 750 mmHg 36%
    19:00 +22°C° 0 mm 5 mps 750 mmHg 41%
    20:00 +20°C° 0 mm 4 mps 750 mmHg 46%
    21:00 +20°C° 0 mm 4 mps 751 mmHg 50%
    22:00 +19°C° 0 mm 5 mps 751 mmHg 53%
    23:00 +17°C° 0 mm 5 mps 751 mmHg 56%

    29 August, Thursday

    Time Temperature Precipitation Wind Pressure Humidity
    00:00 +17°C° 0 mm 4 mps 751 mmHg 58%
    01:00 +15°C° 0 mm 4 mps 751 mmHg 59%
    02:00 +14°C° 0 mm 4 mps 752 mmHg 61%
    03:00 +14°C° 0 mm 4 mps 752 mmHg 61%
    04:00 +13°C° 0 mm 4 mps 752 mmHg 61%
    05:00 +12°C° 0 mm 4 mps 752 mmHg 62%
    06:00 +13°C° 0 mm 4 mps 752 mmHg 58%
    07:00 +14°C° 0 mm 4 mps 752 mmHg 54%
    08:00 +15°C° 0 mm 5 mps 752 mmHg 49%
    09:00 +17°C° 0 mm 5 mps 753 mmHg 44%
    10:00 +19°C° 0 mm 5 mps 753 mmHg 39%
    11:00 +21°C° 0 mm 5 mps 753 mmHg 33%
    12:00 +22°C° 0 mm 5 mps 752 mmHg 31%
    13:00 +22°C° 0 mm 5 mps 752 mmHg 28%
    14:00 +23°C° 0 mm 4 mps 752 mmHg 26%
    15:00 +23°C° 0 mm 4 mps 752 mmHg 27%
    16:00 +22°C° 0 mm 4 mps 752 mmHg 28%
    17:00 +22°C° 0 mm 4 mps 751 mmHg 29%
    18:00 +20°C° 0 mm 4 mps 752 mmHg 34%
    19:00 +18°C° 0 mm 3 mps 752 mmHg 38%
    20:00 +16°C° 0 mm 3 mps 752 mmHg 42%
    21:00 +16°C° 0 mm 3 mps 752 mmHg 45%
    22:00 +14°C° 0 mm 3 mps 752 mmHg 48%
    23:00 +13°C° 0 mm 3 mps 752 mmHg 51%

    30 August, Friday

    Time Temperature Precipitation Wind Pressure Humidity
    00:00 +12°C° 0 mm 3 mps 752 mmHg 54%
    01:00 +12°C° 0 mm 3 mps 752 mmHg 57%
    02:00 +11°C° 0 mm 3 mps 752 mmHg 61%
    03:00 +10°C° 0 mm 3 mps 752 mmHg 62%
    04:00 +10°C° 0 mm 3 mps 753 mmHg 63%
    05:00 +9°C° 0 mm 3 mps 753 mmHg 65%
    06:00 +11°C° 0 mm 3 mps 753 mmHg 58%
    07:00 +14°C° 0 mm 4 mps 753 mmHg 52%
    08:00 +17°C° 0 mm 4 mps 753 mmHg 45%
    09:00 +18°C° 0 mm 4 mps 753 mmHg 40%
    10:00 +20°C° 0 mm 4 mps 753 mmHg 34%
    11:00 +22°C° 0 mm 5 mps 753 mmHg 29%
    12:00 +22°C° 0 mm 5 mps 753 mmHg 27%
    13:00 +23°C° 0 mm 4 mps 753 mmHg 25%
    14:00 +25°C° 0 mm 4 mps 753 mmHg 23%
    15:00 +25°C° 0 mm 4 mps 752 mmHg 23%
    16:00 +25°C° 0 mm 4 mps 752 mmHg 23%
    17:00 +23°C° 0 mm 4 mps 752 mmHg 23%
    18:00 +21°C° 0 mm 4 mps 753 mmHg 28%
    19:00 +19°C° 0 mm 3 mps 753 mmHg 34%
    20:00 +17°C° 0 mm 3 mps 753 mmHg 39%
    21:00 +16°C° 0 mm 3 mps 753 mmHg 42%
    22:00 +14°C° 0 mm 3 mps 754 mmHg 45%
    23:00 +15°C° 0 mm 2 mps 754 mmHg 49%
    Show more